Weather in Los Realejos

Spain     28°22′48″N   16°35′00″W
temp.,
°C
wind,
m/s
gust,
m/s
humid.,
%
clouds,
%
prec.,
mm/h
press.,
hPa
HPBL,
m
19 april, mon
mon1901:00+17ene4575100 0.0 1021552
04:00+17ne4578100 0.0 1020631
07:00+17ne5577100 0.0 1020651
10:00+17ne5675100 0.0 1021638
13:00+18ne6774100 0.0 1021636
16:00+19ne877339 0.0 1020578
19:00+18ne7776100 0.0 1019651
22:00+18ene5678100 0.0 1021598
20 april, tue
tue2001:00+18ne5679100 0.0 1021594
04:00+17ene567799 0.0 1019562
07:00+17ne4578100 0.0 1019601
10:00+18ene5674100 0.0 1020597
13:00+18ne667773 0.0 1020592
16:00+18nne557922 0.0 1019604
19:00+18ne55755 0.0 1018679
22:00+18ne348224 0.0 1019616
21 april, wed
wed2101:00+17ene348624 0.1 1019350
04:00+17e238526 0.1 1017383
07:00+17nne448326 0.1 1018618
10:00+17ene33739 0.0 1019572
13:00+17ne447415 0.0 1019679
16:00+18ne336879 0.0 1017454
19:00+18ne32724 0.0 1017398
22:00+18ne23723 0.0 1018439
22 april, thu
thu2201:00+17ne227811 0.0 1019488
04:00+17e127489 0.0 1017371
07:00+17ene227111 0.0 1017326
10:00+18ne22653 0.0 1018301
13:00+18n22685 0.0 1018347
16:00+18sw117023 0.0 1017213
19:00+18sw33770 0.0 1017172
22:00+17sw23820 0.0 1017140
23 april, fri
fri2301:00+18wsw33761 0.0 1017148
04:00+18sw548310 0.0 1015238
07:00+19wsw4584100 0.0 1014336
10:00+18wsw558917 0.1 1015265
13:00+19nw458898 0.6 1016500
16:00+18nw448486 0.9 1015428
19:00+18wnw347873 1.1 1016500
22:00+18wnw347130 0.1 1017794